Flag for U.S.A. Weather past 2 weeks in Salinas, California, U.S.A.

Now
54 °F

Low clouds.


Feels Like: 54 °F
Forecast: 51 / 68 °F
Wind: 3 mph from Northwest

Location: Salinas Municipal Airport

Current Time: Apr 28, 2015 at 5:05:26 AM

Latest Report: Apr 28, 2015 at 3:53 AM


Visibility: 10 mi

Pressure: 30.07 "Hg

Humidity: 83%

Dew point: 49 °F

Location of SalinasLocation

Historic Weather in Salinas — Graph

°F

Salinas temperature yesterday

Maximum temperature yesterday: 80 °F (at 12:53 PM)
Minimum temperature yesterday: 50 °F (at 3:53 AM)
Average temperature yesterday: 61 °F

Past Weeks' High & Low Weather Summary

 TemperatureHumidityPressure
High82 °F (Apr 17, 12:53 PM)88% (Apr 25, 8:02 AM)30.34 "Hg (Apr 25, 8:02 AM)
Low44 °F (Apr 15, 5:53 AM)13% (Apr 16, 1:53 PM)29.89 "Hg (Apr 20, 6:53 PM)
Average58 °F64%30.04 "Hg
* Reported Apr 13 3:53 AM — Apr 28 3:53 AM, Salinas, Weather by CustomWeather, © 2015

Note: Actual official high and low records may vary slightly from our data, if they occured in-between our weather recording intervals... More about our weather records

Advertising

Salinas weather history for previous 24 hours

 ConditionsComfort  
Time TempWeatherWind HumidityBarometerVisibility
3:53 AM
Tue, Apr 28
54 °FLow clouds.3 mph83%30.07 "Hg10 mi
2:53 AM54 °FLow clouds.7 mph83%30.07 "Hg10 mi
1:53 AM54 °FLow clouds.7 mph83%30.08 "Hg10 mi
12:53 AM54 °FLow clouds.8 mph83%30.08 "Hg10 mi
11:53 PM
Mon, Apr 27
54 °FLow clouds.9 mph83%30.07 "Hg10 mi
10:53 PM55 °FPassing clouds.12 mph83%30.06 "Hg10 mi
9:53 PM55 °FLow clouds.12 mph83%30.05 "Hg9 mi
8:53 PM56 °FLow clouds.10 mph81%30.03 "Hg10 mi
7:53 PM56 °FPartly sunny.12 mph81%30.02 "Hg9 mi
6:53 PM58 °FSunny.12 mph75%30.00 "Hg9 mi
5:53 PM61 °FSunny.10 mph70%30.00 "Hg10 mi
4:53 PM64 °FSunny.9 mph63%30.00 "Hg10 mi
3:53 PM69 °FSunny.16 mph51%29.99 "Hg10 mi
2:53 PM72 °FSunny.16 mph46%29.99 "Hg10 mi
1:53 PM80 °FSunny.14 mph35%29.98 "Hg10 mi
12:53 PM80 °FSunny.12 mph36%30.00 "Hg10 mi
11:53 AM79 °FSunny.12 mph41%30.02 "Hg10 mi
10:53 AM72 °FSunny.3 mph44%30.03 "Hg10 mi
9:53 AM67 °FSunny.7 mph51%30.04 "Hg10 mi
8:53 AM60 °FSunny.12 mph65%30.05 "Hg10 mi
7:53 AM55 °FSunny.10 mph74%30.05 "Hg10 mi
6:53 AM51 °FClear.5 mph83%30.05 "Hg10 mi
5:53 AM50 °FClear.No wind83%30.04 "Hg10 mi
Weather by CustomWeather, © 2015

See weather overviewHow to use our weather pages